FENGYUN 1C DEB, 36280

Orbit data source: Space-Track

FENGYUN 1C DEB, 36280 is space debris in SSO originally from a launch on Mon, 10 May 1999 UTC launched from the Taiyaun Space Center, China (TSC). Fengyun 1C debris stems from the Chinese weather satellite Fengyun-1C, which was intentionally destroyed by a Chinese anti-satellite missile in 2007. This event dramatically increased the amount of space debris, with thousands of trackable fragments posing hazards to satellites and human spaceflight. The Fengyun 1C debris cloud has become a focal point in discussions about space sustainability and the need for international regulations to prevent the creation of new debris.

Loading next visibility...
Identifier
36280, 1999-025DXH
Orbit
SSO
Country
Flag of CNCN / PRC
Related business
Manufacturer
Unknown
Mission
Spacecraft
Bus & Motor
Unknown
Mass
Unknown
Launch date (UTC)
1999-05-10 (27 years ago)
Launch vehicle
Unknown
Launch site
Taiyaun Space Center, China (TSC)
Object type
Payload
Rocket body
Debris
Shape & HBR
Unknown shape, 0.1 m
Radar Cross Section
Small (<0.1 m²)

Expand to show TLE details & history
Last TLE update: 1 day ago

TLE from 1 day ago
0 FENGYUN 1C DEB
1 36280U 99025DXH 25351.34398388  .00001140  00000-0  66114-3 0  9993
2 36280  98.7668  20.2178 0062990  52.5163 325.9805 14.09753782864199
Epoch: 2025-12-17T08:15Z
TLE epoch observation values (Epoch: 2025-12-17T08:15:20.207Z)
Latitude
17.86393°
Longitude
167.33459°
Altitude
824.839 km
Speed
7.461 km/s
True Right ascension
01h 09m 32s
True Declination
17° 45' 53"
Sunlit
Object was in daylight at epoch
Visualization orbit readout
Latitude
Unknown
Longitude
Unknown
Altitude
Unknown
Speed
Unknown
Apparent Right ascension
Unknown
Apparent Declination
Unknown
Sunlit
N/A
Visualization observer readout
Local Sidereal Time
09:55:50
Azimuth
Unknown
Elevation
Unknown
Doppler factor
Unknown
Orbital elements
Apogee altitude
902.966 km
Perigee altitude
811.813 km
Semi-major axis
7,235.526 km
Eccentricity
0.0063
Inclination
98.7668°
RAAN
20.2178°
Arg. of periapsis
52.5163°
True anomaly
325.57402°
Mean anomaly
325.9805°
Eccentric anomaly
325.77752°
Mean motion
3.52645 °/min
Orbital period
102.09 mins
BSTAR
0.00066114
Loading maneuver chart data...
Computing Atmospheric mass density...

Documentation

Showing up to 5 results
|